Location: Unspecified
(0.0000°N, 0.0000°E)
Time: 15:28:29
(UTC+00:00)

Geosat FO - Visible Passes

Search period start: 18 March 2019 00:00
Search period end: 28 March 2019 00:00
Orbit: 446 x 683 km, 108.0° (Epoch: 17 March)

Date Brightness Start Highest point End Pass type
(mag) Time Alt. Az. Time Alt. Az. Time Alt. Az.
18 Mar 5.3 05:20:17 10° N 05:23:10 28° WNW 05:26:04 10° SW visible
19 Mar 5.0 05:20:03 10° N 05:23:04 35° WNW 05:26:09 10° SW visible
20 Mar 4.7 05:19:50 10° N 05:22:58 43° WNW 05:26:11 10° SW visible
21 Mar 4.4 05:19:39 10° N 05:22:52 55° WNW 05:26:11 10° SSW visible
22 Mar 4.3 05:19:30 10° NNE 05:22:47 70° WNW 05:26:09 10° SSW visible
23 Mar 4.4 05:19:23 10° NNE 05:22:41 89° WNW 05:26:05 10° SSW visible
24 Mar 4.7 05:19:18 10° NNE 05:22:35 73° ESE 05:25:59 10° SSW visible
25 Mar 5.1 05:19:14 10° NNE 05:22:29 57° ESE 05:25:51 10° S visible
26 Mar 5.6 05:19:12 10° NE 05:22:24 45° ESE 05:25:42 10° S visible
27 Mar 6.1 05:19:13 10° NE 05:22:17 36° ESE 05:25:30 10° S visible
27 Mar 8.6 18:55:16 10° SW 18:56:18 11° WSW 18:57:20 10° W visible
